TimeMST,TemperatureF,Dew PointF,Humidity,Sea Level PressureIn,VisibilityMPH,Wind Direction,Wind SpeedMPH,Gust SpeedMPH,PrecipitationIn,Events,Conditions,WindDirDegrees,DateUTC
12:58 AM,22.8,13.1,66,30.26,10.0,WSW,5.8,-,N/A,,Clear,240,2014-01-17 07:58:00
1:58 AM,22.5,12.9,67,30.24,10.0,West,5.8,-,N/A,,Clear,280,2014-01-17 08:58:00
2:58 AM,21.7,12.7,68,30.24,10.0,West,6.9,-,N/A,,Clear,270,2014-01-17 09:58:00
3:58 AM,21.9,11.1,63,30.22,10.0,Variable,5.8,-,N/A,,Clear,0,2014-01-17 10:58:00
4:58 AM,21.6,11.5,65,30.21,10.0,West,5.8,-,N/A,,Overcast,280,2014-01-17 11:58:00
5:58 AM,21.0,12.6,70,30.18,10.0,West,5.8,-,N/A,,Mostly Cloudy,270,2014-01-17 12:58:00
6:58 AM,22.5,13.3,68,30.15,10.0,WSW,4.6,-,N/A,,Overcast,240,2014-01-17 13:58:00
7:58 AM,25.7,18.3,74,30.12,10.0,WSW,2.3,-,N/A,,Overcast,240,2014-01-17 14:58:00
8:12 AM,26.6,17.6,69,30.00,10.0,Variable,3.5,-,N/A,,Freezing Rain,0,2014-01-17 15:12:00
8:21 AM,28.4,15.8,59,30.00,10.0,SSW,2.3,-,N/A,,Overcast,200,2014-01-17 15:21:00
8:58 AM,30.0,18.9,63,30.10,10.0,Calm,Calm,-,0.00,,Overcast,0,2014-01-17 15:58:00
9:58 AM,32.0,19.4,60,30.07,10.0,WSW,4.6,-,N/A,,Mostly Cloudy,240,2014-01-17 16:58:00
10:10 AM,32.0,19.4,60,29.97,10.0,SW,4.6,-,N/A,,Overcast,230,2014-01-17 17:10:00
10:58 AM,39.2,21.2,49,30.05,10.0,SSW,5.8,-,N/A,,Clear,210,2014-01-17 17:58:00
11:58 AM,42.8,20.3,41,30.01,10.0,Calm,Calm,-,N/A,,Clear,0,2014-01-17 18:58:00
12:58 PM,46.8,21.6,37,29.98,10.0,Variable,6.9,-,N/A,,Mostly Cloudy,0,2014-01-17 19:58:00
1:58 PM,47.5,21.6,36,29.94,10.0,NW,9.2,-,N/A,,Mostly Cloudy,310,2014-01-17 20:58:00
2:58 PM,49.5,21.2,33,29.93,10.0,NNW,18.4,-,N/A,,Partly Cloudy,330,2014-01-17 21:58:00
3:58 PM,48.4,21.0,34,29.94,10.0,NW,10.4,-,N/A,,Clear,310,2014-01-17 22:58:00
4:57 PM,39.2,22.5,51,29.96,10.0,NW,11.5,-,N/A,,Scattered Clouds,320,2014-01-17 23:57:00
5:58 PM,43.7,20.7,40,29.94,10.0,NW,26.5,35.7,N/A,,Clear,320,2014-01-18 00:58:00
6:58 PM,43.5,21.6,42,29.94,10.0,NNW,26.5,33.4,N/A,,Clear,330,2014-01-18 01:58:00
7:58 PM,43.0,21.6,43,29.92,10.0,NW,25.3,34.5,N/A,,Clear,320,2014-01-18 02:58:00
8:58 PM,42.8,21.6,43,29.91,10.0,NNW,24.2,36.8,N/A,,Clear,330,2014-01-18 03:58:00
9:58 PM,41.9,23.2,47,29.92,10.0,NW,27.6,34.5,N/A,,Clear,320,2014-01-18 04:58:00
10:58 PM,41.9,23.4,48,29.89,10.0,NW,28.8,40.3,N/A,,Clear,320,2014-01-18 05:58:00
11:28 PM,41.0,23.0,49,29.81,10.0,NNW,35.7,46.0,N/A,,Clear,330,2014-01-18 06:28:00
11:31 PM,41.0,23.0,49,29.81,10.0,NW,35.7,46.0,N/A,,Clear,320,2014-01-18 06:31:00
11:35 PM,41.0,24.8,53,29.81,10.0,NW,34.5,46.0,N/A,,Clear,320,2014-01-18 06:35:00
11:54 PM,41.0,24.8,53,29.80,10.0,NW,34.5,44.9,N/A,,Clear,320,2014-01-18 06:54:00
11:58 PM,41.0,24.8,53,29.85,10.0,NW,31.1,41.4,0.00,,Clear,320,2014-01-18 06:58:00